Home   Weather   23°32'S, 46°37'W   Past weeks
Flag for Brazil

Past Weather in 23°32'S, 46°37'W, Brazil — Yesterday and Last 2 Weeks

Now
59 °F

Overcast.


Feels Like: 58 °F
Forecast: 71 / 56 °F
Wind: 8 mph from South

Location: Sao Paulo Airport

Current Time: Oct 21, 2019 at 2:02:29 am

Latest Report: Oct 21, 2019 at 1:00 am


Visibility: N/A

Pressure: 30.01 "Hg

Humidity: 77%

Dew Point: 52 °F

Location of 23°32'S, 46°37'WLocation

Past Weather in 23°32'S, 46°37'W — Graph

°F

23°32'S, 46°37'W Temperature Yesterday

Maximum temperature yesterday: 64 °F (at 12:00 pm)
Minimum temperature yesterday: 59 °F (at 6:00 am)
Average temperature yesterday: 61 °F

High & Low Weather Summary for the Past Weeks

 TemperatureHumidityPressure
High93 °F (Oct 13, 2:00 pm)94% (Oct 6, 11:00 pm)30.24 "Hg (Oct 6, 11:00 pm)
Low59 °F (Oct 20, 6:00 am)26% (Oct 12, 2:00 pm)29.98 "Hg (Oct 13, 3:00 pm)
Average69 °F77%30.11 "Hg
* Reported Oct 6 1:00 am — Oct 21 1:00 am, 23°32'S, 46°37'W. Weather by CustomWeather, © 2019

Note: Actual official high and low records may vary slightly from our data, if they occured in-between our weather recording intervals... More about our weather records

Advertising

23°32'S, 46°37'W Weather History for the Previous 24 Hours

Scroll right to see more
 ConditionsComfort  
Time TempWeatherWind HumidityBarometerVisibility
1:00 am
Mon, Oct 21
59 °FOvercast.8 mph77%30.01 "HgN/A
12:00 am59 °FPartly cloudy.9 mph72%30.04 "HgN/A
11:02 pm
Sun, Oct 20
59 °FPartly cloudy.8 mph72%30.04 "HgN/A
10:00 pm59 °FPartly cloudy.10 mph77%30.07 "HgN/A
9:00 pm59 °FPartly cloudy.12 mph77%30.07 "HgN/A
8:00 pm59 °FPartly cloudy.12 mph72%30.07 "HgN/A
7:00 pm59 °FPartly cloudy.12 mph77%30.04 "HgN/A
6:00 pm59 °FBroken clouds.14 mph77%30.04 "HgN/A
5:00 pm61 °FBroken clouds.15 mph72%30.04 "HgN/A
4:00 pm63 °FBroken clouds.14 mph68%30.04 "HgN/A
3:00 pm64 °FPartly sunny.14 mph68%30.04 "HgN/A
2:00 pm64 °FOvercast.14 mph68%30.07 "HgN/A
1:00 pm64 °FMore clouds than sun.10 mph68%30.09 "Hg4 mi
12:00 pm64 °FBroken clouds.10 mph68%30.09 "Hg5 mi
11:00 am63 °FMostly cloudy.10 mph73%30.12 "Hg6 mi
10:00 am63 °FMostly cloudy.12 mph77%30.12 "Hg6 mi
9:00 am61 °FMore clouds than sun.12 mph83%30.12 "Hg5 mi
8:22 am61 °FMore clouds than sun.12 mph83%30.12 "Hg5 mi
8:00 am59 °FBroken clouds.14 mph88%30.12 "Hg5 mi
7:00 am59 °FDrizzle. Fog.12 mph94%30.09 "Hg3 mi
6:00 am59 °FFog.13 mph94%30.07 "Hg3 mi
5:14 am61 °FMostly cloudy.14 mph83%30.07 "HgN/A
5:00 am61 °FOvercast.14 mph88%30.07 "HgN/A
4:00 am61 °FMostly cloudy.14 mph88%30.07 "HgN/A
3:00 am61 °FMostly cloudy.12 mph88%30.07 "HgN/A
2:21 am61 °FMostly cloudy.10 mph88%30.09 "HgN/A
2:00 am61 °FMostly cloudy.9 mph88%30.09 "HgN/A
Weather by CustomWeather, © 2019

See weather overview